カタログに戻る

SCOUT X-4 R/B

運用中PO
NORAD 809·ROCKET BODY·🇺🇸 United States

打ち上げ Jun 4, 1964 から Vandenberg Space Force Base

Loading…

次のパス (今後24時間)

TLE

最新Source: Space-Track

元期: Sep 14, 2026, 13:32 UTC

1 00809U 64026D   26257.56427329  .00000240  00000-0  12759-3 0  9998
2 00809  90.4500 182.3178 0041239 134.9209 225.5335 14.10818771190748

AllMySatでSCOUT X-4 R/Bをリアルタイム追跡

Download on the App Store